GEFSSE_con_cape1000_240.txt.gz
Probability
0 6 13 10 13 23 19 32 32 32 39 42 42 42 45 55 58 52 52 48 55 58 61 68 65 68 65 68 68 61 48 55 65 65 68 71 74 74 74 74 74 74 81
3 10 13 13 10 19 19 32 32 29 26 39 35 42 35 52 48 48 45 58 52 48 45 58 58 48 55 52 55 48 55 55 52 48 58 61 74 71 71 65 61 74 71
6 10 13 13 13 13 16 19 29 26 29 19 29 29 32 35 42 45 48 48 48 42 45 48 48 61 52 55 61 52 55 55 48 39 42 45 52 58 65 71 68 65 65
0 6 6 10 16 16 16 19 13 23 23 23 23 23 32 35 29 35 42 42 42 42 35 35 48 48 45 52 55 48 55 52 39 35 35 32 32 55 58 58 61 65 58
0 3 10 16 19 19 16 16 16 23 23 23 19 13 19 19 26 26 29 35 35 35 39 35 45 48 52 52 52 48 48 42 42 39 42 52 61 58 58 52 55 61 55
6 10 13 23 19 19 19 16 16 16 16 16 6 3 10 13 16 23 26 23 32 39 32 39 45 52 42 48 48 42 39 32 32 42 39 45 52 55 58 48 45 48 55
6 6 6 13 16 13 10 13 16 19 19 16 16 10 10 6 19 29 19 26 29 26 26 32 39 39 39 32 35 29 23 23 29 35 39 35 35 35 45 48 42 42 45
6 6 6 13 13 10 13 19 16 13 19 16 23 16 10 19 23 26 23 23 19 19 16 19 16 29 23 29 29 29 29 13 13 10 29 29 32 29 29 23 35 42 42
0 3 10 6 0 10 13 13 16 13 16 10 13 13 16 19 19 23 23 16 19 23 26 10 16 23 19 23 26 26 16 13 10 6 6 16 19 23 26 26 32 32 35
0 3 3 3 3 6 10 6 10 13 10 13 10 10 10 10 16 13 6 13 19 13 16 13 16 16 23 26 19 16 10 10 13 6 3 10 13 13 19 26 26 29 26
0 3 3 0 0 3 0 0 6 13 10 13 10 6 6 10 3 6 13 23 16 10 10 13 16 16 10 6 10 6 6 13 10 6 10 6 10 10 10 16 13 16 16
0 0 0 0 0 0 0 0 0 0 6 6 3 6 13 0 0 0 6 13 13 10 10 6 6 0 0 3 3 6 3 6 3 10 10 13 13 6 13 10 16 19 16
0 0 0 0 0 0 0 0 0 6 3 3 3 3 6 0 3 10 6 6 0 0 0 0 0 0 0 0 0 0 6 13 16 6 10 10 10 10 10 6 10 13 26
0 0 0 0 0 0 0 0 0 0 3 3 3 3 6 6 3 0 0 0 0 0 0 0 3 3 3 3 3 3 3 10 10 6 6 6 6 6 6 6 10 13 16
0 0 0 0 0 0 0 0 0 0 0 0 3 0 0 6 0 0 0 3 3 0 0 0 3 3 3 3 3 3 3 6 6 3 3 6 6 6 6 6 13 10 10
0 0 0 0 0 0 0 0 0 0 0 0 0 0 0 0 0 0 0 3 3 0 0 3 3 3 6 3 0 3 3 0 0 3 0 3 10 10 10 10 10 6 6
0 0 0 0 0 0 0 3 3 3 0 0 0 0 0 0 0 0 0 0 0 0 0 3 3 3 0 0 0 3 3 0 0 0 3 0 0 3 3 3 0 3 6
3 0 0 0 0 0 0 3 3 3 3 0 0 0 0 0 0 0 0 0 0 0 0 6 10 3 3 0 0 3 0 3 3 0 0 0 3 0 0 0 0 3 3
3 0 0 0 0 0 0 0 0 0 3 3 0 3 0 0 3 0 0 0 0 0 3 0 3 3 6 3 3 0 0 3 3 0 0 0 3 3 0 0 0 3 3
3 3 0 0 0 3 0 0 0 0 0 0 0 3 0 3 3 0 0 0 0 3 3 6 3 3 6 3 0 0 3 0 0 0 0 0 0 0 0 0 0 0 0
3 3 0 3 3 3 0 0 0 0 0 0 0 0 6 3 3 3 0 0 3 3 3 0 3 0 3 3 3 3 3 0 0 0 0 0 0 0 0 0 0 0 0
3 3 0 3 3 3 3 0 0 0 0 0 0 0 0 0 3 0 3 3 3 6 6 3 3 3 3 0 3 0 0 0 0 0 0 0 0 0 0 0 0 0 0
3 3 0 6 3 3 0 0 0 0 0 0 0 0 0 3 3 3 3 3 3 3 6 3 6 10 3 3 0 0 3 0 0 0 0 0 0 0 0 0 0 0 0
3 3 3 3 0 0 0 0 0 0 0 0 0 0 0 3 3 3 3 3 3 3 3 6 3 3 10 6 0 3 3 3 3 0 0 0 0 0 0 0 0 0 0
3 3 3 3 3 0 0 0 0 0 0 0 0 0 0 3 6 6 6 6 3 6 3 3 3 3 6 0 6 6 0 0 0 0 0 0 0 0 0 0 0 3 3
6 3 3 3 3 3 0 0 0 0 0 0 0 0 0 0 6 6 6 6 6 6 6 6 6 6 3 3 3 6 3 0 0 0 0 0 0 0 0 0 3 3 6

GEFSSE_con_cape1000_246.txt.gz
Probability
10 13 29 29 23 23 26 29 32 29 39 48 42 39 42 39 39 45 52 55 55 61 58 61 65 61 58 61 55 52 55 58 55 68 65 71 77 81 90 84 74 68 87
10 13 19 26 19 19 29 35 32 35 35 39 39 42 42 45 42 35 52 48 55 61 65 61 65 58 61 55 48 45 45 58 55 61 61 68 68 68 81 77 74 71 77
10 10 10 19 19 19 26 23 26 19 29 29 35 35 42 35 39 35 35 45 52 58 65 68 58 52 52 45 42 39 45 45 48 52 55 32 42 58 71 68 77 68 74
6 10 10 16 19 19 19 19 16 16 26 32 29 35 35 39 42 39 35 42 39 45 52 58 55 45 39 35 42 42 39 45 48 45 26 29 29 52 58 61 65 71 65
6 13 13 26 23 16 13 16 19 16 16 16 26 16 29 39 35 26 29 29 32 29 42 42 35 39 39 39 42 39 39 42 42 35 23 29 26 55 58 55 58 55 58
3 6 13 16 13 16 16 10 19 19 23 19 10 16 23 26 26 29 23 23 29 29 35 35 39 35 35 35 29 32 29 29 29 13 23 23 29 48 45 39 42 55 55
6 3 10 16 10 13 13 13 13 19 16 13 13 16 19 19 19 23 19 19 26 26 32 32 29 23 29 29 26 32 23 35 13 13 16 19 35 42 42 45 48 45 45
6 6 10 23 19 6 6 16 16 19 23 19 19 10 19 29 29 23 16 16 19 23 23 19 19 16 19 13 23 23 29 32 10 16 16 13 26 39 39 35 45 42 39
6 6 3 13 13 16 16 10 13 16 19 10 19 16 23 29 23 16 13 13 19 16 19 13 13 13 13 13 10 6 13 29 3 6 3 10 23 23 26 35 35 29 29
3 6 10 0 10 6 6 13 13 13 19 19 16 16 23 19 13 16 3 16 10 13 13 13 13 13 13 10 10 6 10 13 3 0 6 13 19 19 19 19 19 26 29
3 3 10 3 3 6 3 6 6 10 10 16 16 16 16 10 6 3 10 13 13 13 10 10 6 10 6 3 6 6 6 3 0 6 6 13 13 16 19 16 16 23 35
0 0 3 3 3 0 0 3 0 0 6 6 3 0 0 0 0 3 13 10 6 6 6 6 10 6 3 0 0 6 0 0 0 6 6 6 16 13 10 13 16 16 23
0 0 0 3 0 0 0 0 0 0 6 0 0 0 0 0 0 0 0 6 3 0 0 3 3 0 0 0 0 0 0 3 3 3 6 13 13 13 13 10 13 13 16
0 0 0 0 0 0 0 0 0 0 0 0 0 0 3 0 0 0 0 0 0 0 0 0 0 0 0 0 0 0 0 3 0 0 3 13 10 10 10 10 10 13 16
0 0 0 0 0 0 0 0 0 0 0 0 0 0 0 0 0 0 0 0 0 0 0 0 3 0 0 0 0 0 0 0 0 0 0 10 13 13 10 10 10 10 10
0 0 0 0 0 0 0 0 0 0 0 0 0 0 0 0 0 0 0 0 0 0 0 0 0 0 0 0 0 0 0 0 0 0 0 0 6 6 10 10 6 6 10
0 0 0 0 0 0 0 0 0 0 0 0 0 0 0 0 0 0 0 0 0 0 0 0 0 0 0 0 0 0 0 0 0 0 0 0 0 6 6 3 6 10 13
0 0 0 0 0 0 0 0 0 0 0 0 0 0 0 0 0 0 0 0 0 0 0 0 0 0 0 0 0 0 0 0 0 0 0 0 0 0 0 6 3 3 3
0 0 0 0 0 0 0 0 0 0 0 0 0 0 0 0 0 0 0 0 0 0 0 0 0 0 0 0 0 0 0 0 0 0 0 0 0 0 0 0 3 3 0
3 0 0 0 0 0 0 0 0 0 0 0 0 0 0 0 0 0 0 3 0 0 0 0 0 0 0 0 0 0 0 0 0 0 0 0 0 0 0 0 0 0 3
3 3 3 3 0 0 3 0 0 0 0 0 0 0 0 0 3 3 3 3 0 0 0 0 0 0 0 0 0 0 0 0 0 0 0 0 0 0 0 0 0 0 0
0 0 0 0 0 3 3 3 3 3 0 0 0 0 0 0 0 3 3 3 0 0 0 0 0 0 0 0 0 0 0 0 0 0 0 0 0 0 0 0 0 0 0
0 0 0 0 0 3 3 3 3 3 0 0 0 0 0 0 3 3 3 3 0 3 0 0 3 3 0 0 0 0 0 0 0 0 0 0 0 0 0 0 0 0 0
3 3 3 0 3 3 3 3 3 0 0 0 0 0 0 3 3 3 3 3 3 0 0 0 3 3 6 0 0 0 0 0 0 0 0 0 0 0 0 0 0 0 0
3 3 3 6 3 3 3 3 3 0 0 0 0 0 0 3 3 3 3 3 3 0 0 0 0 0 0 0 0 0 0 0 0 0 0 0 0 0 0 0 0 0 0
3 6 6 6 6 3 3 3 3 0 0 0 0 0 3 3 3 3 3 3 3 3 3 3 0 3 3 3 0 0 0 0 0 0 0 0 0 0 0 0 0 0 0

GEFSSE_con_cape1000_252.txt.gz
Probability
3 10 29 23 32 35 35 45 45 42 48 52 52 52 55 52 55 61 61 61 58 65 65 68 71 65 58 65 71 74 71 68 71 74 74 84 84 81 81 71 74 68 74
3 16 29 26 35 35 35 32 42 42 48 48 48 52 45 45 48 61 68 68 68 71 71 61 58 61 48 58 58 68 68 68 68 68 68 68 81 77 74 74 68 68 74
6 13 23 23 35 29 32 29 19 32 42 45 48 42 39 39 42 55 55 58 61 55 65 52 55 58 42 48 58 52 52 65 58 55 39 26 45 68 65 68 65 68 71
6 10 10 29 32 23 23 26 29 29 29 39 39 48 45 39 35 45 45 52 61 58 52 52 45 42 39 42 39 35 42 45 42 32 13 16 29 65 68 68 71 65 65
6 10 13 26 29 23 26 23 23 26 35 35 35 42 39 35 35 42 42 42 48 48 39 42 42 39 32 32 35 45 45 45 29 13 10 10 26 65 65 68 65 68 61
6 10 16 23 19 19 16 19 19 26 29 32 32 45 42 39 35 39 39 42 42 45 39 39 42 35 32 32 32 35 35 26 13 10 10 13 16 48 65 52 58 65 61
6 10 13 23 19 16 13 19 26 26 23 26 26 42 45 42 39 32 26 26 32 26 32 29 32 26 29 32 35 29 23 16 3 0 0 6 23 35 42 35 42 42 55
6 10 16 23 19 19 19 19 26 23 26 26 26 32 39 42 35 35 26 23 16 16 16 23 26 26 26 32 26 26 19 16 3 0 0 6 23 26 32 39 39 42 42
6 10 10 13 16 16 19 23 23 23 23 32 29 23 29 26 19 26 23 16 19 16 13 13 13 19 16 23 32 23 16 19 0 0 3 6 29 26 26 26 35 45 42
0 6 10 6 10 10 10 23 23 26 26 32 29 29 35 23 6 13 13 26 16 10 16 13 10 10 13 13 23 26 16 0 0 0 3 13 23 23 16 19 26 29 35
0 3 3 0 3 3 0 10 13 16 19 26 13 19 13 0 0 3 6 16 13 3 3 10 10 10 0 10 16 10 0 0 0 0 3 16 19 23 23 26 29 32 29
0 0 0 0 0 0 0 0 0 0 3 0 0 0 0 0 0 0 10 10 6 3 6 6 0 3 0 0 0 0 0 0 0 0 6 16 19 19 23 26 29 26 23
0 0 0 0 0 0 0 0 0 0 0 0 0 0 0 0 0 0 0 0 0 0 0 0 0 0 0 0 0 0 0 0 0 0 10 16 16 16 16 19 19 19 19
0 0 0 0 0 0 0 0 0 0 0 0 0 0 0 0 0 0 0 0 0 0 0 0 0 0 0 0 0 0 0 0 0 0 6 16 13 13 13 13 10 16 13
0 0 0 0 0 0 0 0 0 0 0 0 0 0 0 0 0 0 0 0 0 0 0 0 0 0 0 0 0 0 0 0 0 0 3 16 19 16 13 16 10 13 10
0 0 0 0 0 0 0 0 0 0 0 0 0 0 0 0 0 0 0 0 0 0 0 0 0 0 0 0 0 0 0 0 0 0 0 3 13 19 19 19 13 13 16
0 0 0 0 0 0 0 0 0 0 0 0 0 0 0 0 0 0 0 0 0 0 0 0 0 0 0 0 0 0 0 0 0 0 0 0 0 6 13 13 16 10 13
0 0 0 0 0 0 0 0 0 0 0 0 0 0 0 0 0 0 0 0 0 0 0 0 0 0 0 0 0 0 0 0 0 0 0 0 0 0 0 6 16 10 10
0 0 0 0 0 0 0 0 0 0 0 0 0 0 0 0 0 0 0 0 0 0 0 0 0 0 0 0 0 0 0 0 0 0 0 0 0 0 0 0 6 13 6
0 0 0 0 0 0 0 0 0 0 0 0 0 0 0 0 0 0 0 0 0 0 0 0 0 0 0 0 0 0 0 0 0 0 0 0 0 0 0 0 0 0 6
0 0 0 0 0 0 0 0 0 0 0 0 0 0 0 0 0 0 0 0 0 0 0 0 0 0 0 0 0 0 0 0 0 0 0 0 0 0 0 0 0 0 0
0 0 0 0 0 0 0 0 0 0 0 0 0 0 0 0 0 0 0 0 0 0 0 0 0 0 0 0 0 0 0 0 0 0 0 0 0 0 0 0 0 0 0
0 0 0 0 0 0 0 0 0 0 0 0 0 0 0 0 0 0 0 0 0 0 0 0 0 0 0 0 0 0 0 0 0 0 0 0 0 0 0 0 0 0 0
0 0 0 0 0 0 0 0 0 0 0 0 0 0 0 0 0 0 0 0 0 0 0 0 0 0 0 0 0 0 0 0 0 0 0 0 0 0 0 0 0 0 0
0 0 0 0 0 0 0 0 0 0 0 0 0 0 0 0 0 0 0 0 0 0 0 0 0 0 0 0 0 0 0 0 0 0 0 0 0 0 0 0 0 0 0
0 0 0 0 0 0 0 0 0 0 0 0 0 0 0 0 0 0 0 0 0 0 0 0 0 0 0 0 0 0 0 0 0 0 0 0 0 0 0 0 0 0 0

GEFSSE_con_cape1000_258.txt.gz
Probability
0 3 19 16 23 26 29 26 32 29 39 42 48 52 52 52 52 52 52 58 65 65 65 61 61 71 74 74 74 74 71 68 65 74 74 74 74 68 71 74 77 65 77
0 3 19 19 26 23 26 35 35 32 32 39 42 42 48 48 52 52 61 61 61 71 61 65 65 71 68 65 71 71 71 71 68 68 65 65 68 68 68 71 71 65 77
3 10 13 23 23 23 26 19 19 19 26 32 29 29 42 48 42 55 61 61 61 65 58 68 58 58 61 61 61 71 68 65 61 61 45 23 48 68 61 65 68 71 74
6 10 10 29 29 19 23 29 26 23 29 29 29 32 26 26 32 45 58 55 55 58 55 61 55 52 52 52 52 61 61 58 48 39 13 13 35 65 71 74 61 65 65
6 10 10 19 19 16 26 35 32 29 26 35 35 32 23 35 32 26 39 42 55 58 58 48 45 48 45 45 52 55 55 45 39 10 6 3 16 61 71 77 74 65 65
6 10 13 19 19 19 19 29 23 23 23 23 39 39 29 35 35 29 32 35 42 48 48 45 35 42 45 39 29 29 32 29 6 3 0 0 13 55 55 55 61 65 61
6 6 13 23 16 16 16 13 16 23 29 26 32 42 42 32 29 26 26 39 42 26 29 35 32 32 26 26 26 23 23 10 0 0 0 0 16 52 42 42 52 48 52
6 10 10 13 13 13 16 13 19 19 16 16 26 32 39 29 19 23 26 19 23 29 23 23 29 19 13 19 16 19 23 6 0 0 0 3 26 26 26 32 35 48 48
6 10 10 10 13 13 16 16 16 26 16 13 32 26 26 23 23 16 6 16 19 16 13 13 13 23 19 16 10 13 16 6 0 0 0 3 29 26 23 26 39 26 32
3 6 10 10 10 10 13 16 19 23 26 26 19 16 19 10 6 6 0 13 10 16 16 19 19 10 10 13 13 19 10 0 0 0 0 10 29 26 19 26 32 29 29
0 0 3 3 0 0 0 10 6 19 16 13 13 16 3 0 0 0 3 16 16 19 23 16 16 13 10 10 6 6 0 0 0 0 0 10 19 16 23 29 26 23 26
0 0 3 0 0 0 0 0 0 0 0 0 0 0 0 0 0 0 3 13 16 16 13 16 10 0 0 0 0 0 0 0 0 3 6 13 23 19 16 26 26 26 26
0 0 0 0 0 0 0 0 0 0 0 0 0 0 0 0 0 0 0 0 0 0 0 0 0 0 0 0 0 0 0 0 0 0 6 10 16 16 16 19 19 16 19
0 0 0 0 0 0 0 0 0 0 0 0 0 0 0 0 0 0 0 0 0 0 0 0 0 0 0 0 0 0 0 0 0 0 6 6 6 10 13 13 13 13 19
0 0 0 0 0 0 0 0 0 0 0 0 0 0 0 0 0 0 0 0 0 0 0 0 0 0 0 0 0 0 0 0 0 0 3 6 6 10 10 13 13 19 19
0 0 0 0 0 0 0 0 0 0 0 0 0 0 0 0 0 0 0 0 0 0 0 0 0 0 0 0 0 0 0 0 0 0 0 3 6 10 6 10 16 16 16
0 0 0 0 0 0 0 0 0 0 0 0 0 0 0 0 0 0 0 0 0 0 0 0 0 0 0 0 0 0 0 0 0 0 0 0 0 3 10 6 6 10 16
0 0 0 0 0 0 0 0 0 0 0 0 0 0 0 0 0 0 0 0 0 0 0 0 0 0 0 0 0 0 0 0 0 0 0 0 0 0 0 6 6 13 10
0 0 0 0 0 0 0 0 0 0 0 0 0 0 0 0 0 0 0 0 0 0 0 0 0 0 0 0 0 0 0 0 0 0 0 0 0 0 0 0 3 10 3
0 0 0 0 0 0 0 0 0 0 0 0 0 0 0 0 0 0 0 0 0 0 0 0 0 0 0 0 0 0 0 0 0 0 0 0 0 0 0 0 0 3 3
0 0 0 0 0 0 0 0 0 0 0 0 0 0 0 0 0 0 0 0 0 0 0 0 0 0 0 0 0 0 0 0 0 0 0 0 0 0 0 0 0 0 0
0 0 0 0 0 0 0 0 0 0 0 0 0 0 0 0 0 0 0 0 0 0 0 0 0 0 0 0 0 0 0 0 0 0 0 0 0 0 0 0 0 0 0
0 0 0 0 0 0 0 0 0 0 0 0 0 0 0 0 0 0 0 0 0 0 0 0 0 0 0 0 0 0 0 0 0 0 0 0 0 0 0 0 0 0 0
0 0 0 0 0 0 0 0 0 0 0 0 0 0 0 0 0 0 0 0 0 0 0 0 0 0 0 0 0 0 0 0 0 0 0 0 0 0 0 0 0 0 0
0 0 0 0 0 0 0 0 0 0 0 0 0 0 0 0 0 0 0 0 0 0 0 0 0 0 0 0 0 0 0 0 0 0 0 0 0 0 0 0 0 0 0
0 0 0 0 0 0 0 0 0 0 0 0 0 0 0 0 0 0 0 0 0 0 0 0 0 0 0 0 0 0 0 0 0 0 0 0 0 0 0 0 0 0 0